Volver al catálogo

OPS 4682 DEB

ActivoPO
NORAD 59150·DEBRIS·🇺🇸 United States

Lanzado Apr 3, 1965 desde Vandenberg Space Force Base

Loading…

Próximos Pases (próximas 24 horas)

TLE

ActualizadoSource: Space-Track

Época: Sep 13, 2026, 17:46 UTC

1 59150U 65027HS  26256.74048232  .00000290  00000-0  95293-3 0  9993
2 59150  90.2529   6.2017 0029543 126.7265 233.6576 12.98920374515500

Sigue OPS 4682 DEB en tiempo real con AllMySat

Download on the App Store